Location: Puketoi
(40.5833°S, 176.0167°E)
Time: 15:29:47
(UTC+00:00)

PAYLOAD A - Pass Details

Date: 30 September 2023
Orbit: 692 x 830 km, 98.5° (Epoch: 01 December)

Event Time Altitude Azimuth Distance (km) Brightness Sun altitude
Exits shadow 14:11:06 30° 136° (SE) 1,484 5.9 -38.0°
Drops below altitude 10° 14:14:47 10° 174° (S) 2,471 7.1 -37.6°
Sets 14:17:23 0° 183° (S) 3,410 7.9 -37.2°
